Location: Powder Track
(41.8531°N, 72.3584°W)
Time: 06:09:12
(UTC+00:00)

X-37B - Pass Details

Date: 27 June 2021
Orbit: 383 x 392 km, 45.0° (Epoch: 01 July)

Event Time Altitude Azimuth Distance (km) Brightness Sun altitude
Rises 02:58:44 0° 280° (W) 2,256 5.0 -19.7°
Reaches altitude 10° 03:00:52 10° 287° (WNW) 1,402 4.0 -19.9°
Maximum altitude 03:03:54 44° 1° (N) 544 1.7 -20.2°
Enters shadow 03:04:58 30° 51° (NE) 711 2.0 -20.2°
